GSAT-11

Last updated on Wed Sep 09 2026 00:03:02 GMT+0000 (Coordinated Universal Time)

1 43824U 18100B 26251.58885616 -.00000098 00000+0 00000+0 0 9990 2 43824 0.0916 269.6045 0006651 208.6422 155.3973 1.00271110 28313
UTC large
Height (km)
Speed (km/s)
/
Latitude / Longitude
Inclination (degrees)
Orbital Period (minutes)
Azimuth
Elevation
Range (km)
Doppler Factor

Next 0 passes for location: London (51.5072 / 0.1276)

No passes found over London.
GSAT-11